View from above orbital plane
|
View from above satellite
|
Ground track
|
The orbit data is extracted from the following two-line orbital elements,
1 30774U 07006C 21101.82529487 .00002915 00000-0 67384-4 0 9993
2 30774 46.0007 237.0967 0004916 167.0585 193.0447 15.45447163786960
Epoch (UTC): | 11 April 2021 19:48:25 |
Eccentricity: | 0.0004916 |
inclination: | 46.0007° |
perigee height: | 427 km |
apogee height: | 433 km |
right ascension of ascending node: | 237.0967° |
argument of perigee: | 167.0585° |
revolutions per day: | 15.45447163 |
mean anomaly at epoch: | 193.0447° |
orbit number at epoch: | 78696 |
The dashed part of the orbit path shows where the satellite is in the earth's shadow,
|
|